Regional Weather Roundup
Issued by NWS Goodland, KS

Home | Current Version | Previous Version | Graphics & Text | Print | Product List | Glossary On
Versions: 1 2 3 4 5 6 7 8 9 10 11 12 13 14 15 16 17 18 19 20 21 22 23 24 25 26 27 28 29 30 31 32 33 34 35 36 37 38 39 40 41 42 43 44 45 46 47 48 49 50
000
ASUS43 KGLD 190559
RWRGLD

GOODLAND FORECAST AREA HOURLY WEATHER ROUNDUP
NATIONAL WEATHER SERVICE GOODLAND KS
1100 PM MST THU DEC 18 2014

...OFFICIAL OBSERVATIONS...

CITY           SKY/WX    TMP DP  RH WIND       PRES   REMARKS
GOODLAND KS    CLEAR     23  21  92 W7        30.12R
HILL CITY KS   CLOUDY    33  29  85 SW5       30.19R
IMPERIAL NEB   MOCLDY    19  15  84 NW3       30.11S FOG
MCCOOK NEB     FOG       28  27  96 S5        30.15R VSB 1/4
AKRON CO       MOCLDY    28  20  71 SW8       30.09S
BURLINGTON CO  PTCLDY    24  19  81 SW8       30.12R
LIMON CO       CLEAR     16  13  88 CALM      30.11S
$$

...UNOFFICIAL OBSERVATIONS...

CITY           SKY/WX    TMP DP  RH WIND       PRES   REMARKS
GOVE KS          N/A     30  32 100 MISG        N/A
SHARON SPRINGS   N/A     30  28  92 CALM        N/A
TRIBUNE KS     CLOUDY    30  30 100 SW8       30.16R
KIT CARSON CO    N/A     25  23  91 MISG        N/A
$$



USA.gov is the U.S. government's official web portal to all federal, state and local government web resources and services.